Year,Month,Day,Hour,Minute,Value (Times are PST for temperature in C)
2006,05,14,00,00,8.50
2006,05,14,00,01,8.50
2006,05,14,00,02,8.50
2006,05,14,00,03,8.50
2006,05,14,00,04,8.50
2006,05,14,00,05,8.40
2006,05,14,00,06,8.40
2006,05,14,00,07,8.40
2006,05,14,00,08,8.40
2006,05,14,00,09,8.30
2006,05,14,00,10,8.30
2006,05,14,00,11,8.30
2006,05,14,00,12,8.30
2006,05,14,00,13,8.30
2006,05,14,00,14,8.20
2006,05,14,00,15,8.20
2006,05,14,00,16,8.20
2006,05,14,00,17,8.20
2006,05,14,00,18,8.20
2006,05,14,00,19,8.10
2006,05,14,00,20,8.10
2006,05,14,00,21,8.10
2006,05,14,00,22,8.10
2006,05,14,00,23,8.00
2006,05,14,00,24,8.00
2006,05,14,00,25,8.00
2006,05,14,00,26,7.90
2006,05,14,00,27,7.90
2006,05,14,00,28,7.90
2006,05,14,00,29,7.90
2006,05,14,00,30,7.80
2006,05,14,00,31,7.80
2006,05,14,00,32,7.80
2006,05,14,00,33,7.80
2006,05,14,00,34,7.70
2006,05,14,00,35,7.70
2006,05,14,00,36,7.70
2006,05,14,00,37,7.60
2006,05,14,00,38,7.60
2006,05,14,00,39,7.60
2006,05,14,00,40,7.60
2006,05,14,00,41,7.50
2006,05,14,00,42,7.50
2006,05,14,00,43,7.50
2006,05,14,00,44,7.40
2006,05,14,00,45,7.40
2006,05,14,00,46,7.40
2006,05,14,00,47,7.40
2006,05,14,00,48,7.30
2006,05,14,00,49,7.30
2006,05,14,00,50,7.30
2006,05,14,00,51,7.30
2006,05,14,00,52,7.30
2006,05,14,00,53,7.30
2006,05,14,00,54,7.30
2006,05,14,00,55,7.30
2006,05,14,00,56,7.30
2006,05,14,00,57,7.30
2006,05,14,00,58,7.20
2006,05,14,00,59,7.20
2006,05,14,01,00,7.20
2006,05,14,01,01,7.20
2006,05,14,01,02,7.20
2006,05,14,01,03,7.10
2006,05,14,01,04,7.10
2006,05,14,01,05,7.10
2006,05,14,01,06,7.10
2006,05,14,01,07,7.10
2006,05,14,01,08,7.10
2006,05,14,01,09,7.00
2006,05,14,01,10,7.00
2006,05,14,01,11,7.00
2006,05,14,01,12,7.00
2006,05,14,01,13,7.00
2006,05,14,01,14,7.00
2006,05,14,01,15,6.90
2006,05,14,01,16,6.90
2006,05,14,01,17,6.90
2006,05,14,01,18,6.90
2006,05,14,01,19,6.80
2006,05,14,01,20,6.80
2006,05,14,01,21,6.80
2006,05,14,01,22,6.80
2006,05,14,01,23,6.80
2006,05,14,01,24,6.80
2006,05,14,01,25,6.70
2006,05,14,01,26,6.70
2006,05,14,01,27,6.70
2006,05,14,01,28,6.70
2006,05,14,01,29,6.60
2006,05,14,01,30,6.60
2006,05,14,01,31,6.60
2006,05,14,01,32,6.60
2006,05,14,01,33,6.60
2006,05,14,01,34,6.50
2006,05,14,01,35,6.40
2006,05,14,01,36,6.40
2006,05,14,01,37,6.40
2006,05,14,01,38,6.40
2006,05,14,01,39,6.40
2006,05,14,01,40,6.40
2006,05,14,01,41,6.30
2006,05,14,01,42,6.30
2006,05,14,01,43,6.30
2006,05,14,01,44,6.30
2006,05,14,01,45,6.30
2006,05,14,01,46,6.20
2006,05,14,01,47,6.20
2006,05,14,01,48,6.20
2006,05,14,01,49,6.20
2006,05,14,01,50,6.20
2006,05,14,01,51,6.20
2006,05,14,01,52,6.20
2006,05,14,01,53,6.10
2006,05,14,01,54,6.10
2006,05,14,01,55,6.10
2006,05,14,01,56,6.10
2006,05,14,01,57,6.10
2006,05,14,01,58,6.00
2006,05,14,01,59,6.00
2006,05,14,02,00,6.00
2006,05,14,02,01,6.00
2006,05,14,02,02,5.90
2006,05,14,02,03,5.90
2006,05,14,02,04,5.90
2006,05,14,02,05,5.90
2006,05,14,02,06,5.90
2006,05,14,02,07,5.90
2006,05,14,02,08,5.80
2006,05,14,02,09,5.80
2006,05,14,02,10,5.80
2006,05,14,02,11,5.80
2006,05,14,02,12,5.80
2006,05,14,02,13,5.80
2006,05,14,02,14,5.80
2006,05,14,02,15,5.80
2006,05,14,02,16,5.80
2006,05,14,02,17,5.90
2006,05,14,02,18,5.90
2006,05,14,02,19,5.90
2006,05,14,02,20,5.90
2006,05,14,02,21,5.80
2006,05,14,02,22,5.80
2006,05,14,02,23,5.80
2006,05,14,02,24,5.80
2006,05,14,02,25,5.80
2006,05,14,02,26,5.80
2006,05,14,02,27,5.80
2006,05,14,02,28,5.70
2006,05,14,02,29,5.70
2006,05,14,02,30,5.70
2006,05,14,02,31,5.70
2006,05,14,02,32,5.70
2006,05,14,02,33,5.70
2006,05,14,02,34,5.70
2006,05,14,02,35,5.70
2006,05,14,02,36,5.70
2006,05,14,02,37,5.70
2006,05,14,02,38,5.70
2006,05,14,02,39,5.70
2006,05,14,02,40,5.70
2006,05,14,02,41,5.70
2006,05,14,02,42,5.70
2006,05,14,02,43,5.70
2006,05,14,02,44,5.70
2006,05,14,02,45,5.70
2006,05,14,02,46,5.70
2006,05,14,02,47,5.70
2006,05,14,02,48,5.70
2006,05,14,02,49,5.70
2006,05,14,02,50,5.70
2006,05,14,02,51,5.70
2006,05,14,02,52,5.70
2006,05,14,02,53,5.70
2006,05,14,02,54,5.70
2006,05,14,02,55,5.70
2006,05,14,02,56,5.70
2006,05,14,02,57,5.70
2006,05,14,02,58,5.70
2006,05,14,02,59,5.70
2006,05,14,03,00,5.70
2006,05,14,03,01,5.70
2006,05,14,03,02,5.70
2006,05,14,03,03,5.70
2006,05,14,03,04,5.70
2006,05,14,03,05,5.70
2006,05,14,03,06,5.70
2006,05,14,03,07,5.70
2006,05,14,03,08,5.70
2006,05,14,03,09,5.70
2006,05,14,03,10,5.70
2006,05,14,03,11,5.70
2006,05,14,03,12,5.70
2006,05,14,03,13,5.70
2006,05,14,03,14,5.70
2006,05,14,03,15,5.70
2006,05,14,03,16,5.70
2006,05,14,03,17,5.60
2006,05,14,03,18,5.60
2006,05,14,03,19,5.60
2006,05,14,03,20,5.60
2006,05,14,03,21,5.50
2006,05,14,03,22,5.50
2006,05,14,03,23,5.40
2006,05,14,03,24,5.40
2006,05,14,03,25,5.40
2006,05,14,03,26,5.40
2006,05,14,03,27,5.30
2006,05,14,03,28,5.30
2006,05,14,03,29,5.30
2006,05,14,03,30,5.30
2006,05,14,03,31,5.30
2006,05,14,03,32,5.30
2006,05,14,03,33,5.30
2006,05,14,03,34,5.30
2006,05,14,03,35,5.30
2006,05,14,03,36,5.30
2006,05,14,03,37,5.20
2006,05,14,03,38,5.20
2006,05,14,03,39,5.20
2006,05,14,03,40,5.20
2006,05,14,03,41,5.20
2006,05,14,03,42,5.20
2006,05,14,03,43,5.20
2006,05,14,03,44,5.20
2006,05,14,03,45,5.20
2006,05,14,03,46,5.20
2006,05,14,03,47,5.10
2006,05,14,03,48,5.10
2006,05,14,03,49,5.10
2006,05,14,03,50,5.10
2006,05,14,03,51,5.10
2006,05,14,03,52,5.10
2006,05,14,03,53,5.10
2006,05,14,03,54,5.10
2006,05,14,03,55,5.10
2006,05,14,03,56,5.10
2006,05,14,03,57,5.10
2006,05,14,03,58,5.10
2006,05,14,03,59,5.10
2006,05,14,04,00,5.10
2006,05,14,04,01,5.10
2006,05,14,04,02,5.10
2006,05,14,04,03,5.10
2006,05,14,04,04,5.10
2006,05,14,04,05,4.90
2006,05,14,04,06,4.90
2006,05,14,04,07,4.90
2006,05,14,04,08,4.90
2006,05,14,04,09,4.90
2006,05,14,04,10,4.90
2006,05,14,04,11,4.90
2006,05,14,04,12,4.90
2006,05,14,04,13,4.90
2006,05,14,04,14,4.80
2006,05,14,04,15,4.80
2006,05,14,04,16,4.80
2006,05,14,04,17,4.80
2006,05,14,04,18,4.70
2006,05,14,04,19,4.70
2006,05,14,04,20,4.70
2006,05,14,04,21,4.60
2006,05,14,04,22,4.60
2006,05,14,04,23,4.60
2006,05,14,04,24,4.60
2006,05,14,04,25,4.60
2006,05,14,04,26,4.60
2006,05,14,04,27,4.60
2006,05,14,04,28,4.60
2006,05,14,04,29,4.50
2006,05,14,04,30,4.50
2006,05,14,04,31,4.50
2006,05,14,04,32,4.50
2006,05,14,04,33,4.50
2006,05,14,04,34,4.50
2006,05,14,04,35,4.40
2006,05,14,04,36,4.40
2006,05,14,04,37,4.40
2006,05,14,04,38,4.40
2006,05,14,04,39,4.40
2006,05,14,04,40,4.40
2006,05,14,04,41,4.30
2006,05,14,04,42,4.30
2006,05,14,04,43,4.30
2006,05,14,04,44,4.20
2006,05,14,04,45,4.20
2006,05,14,04,46,4.20
2006,05,14,04,47,4.20
2006,05,14,04,48,4.20
2006,05,14,04,49,4.20
2006,05,14,04,50,4.20
2006,05,14,04,51,4.20
2006,05,14,04,52,4.20
2006,05,14,04,53,4.20
2006,05,14,04,54,4.20
2006,05,14,04,55,4.20
2006,05,14,04,56,4.10
2006,05,14,04,57,4.10
2006,05,14,04,58,4.10
2006,05,14,04,59,4.10
2006,05,14,05,00,4.10
2006,05,14,05,01,4.10
2006,05,14,05,02,4.10
2006,05,14,05,03,4.10
2006,05,14,05,04,4.10
2006,05,14,05,05,4.10
2006,05,14,05,06,4.10
2006,05,14,05,07,4.10
2006,05,14,05,08,4.10
2006,05,14,05,09,4.10
2006,05,14,05,10,4.10
2006,05,14,05,11,4.10
2006,05,14,05,12,4.10
2006,05,14,05,13,4.10
2006,05,14,05,14,4.10
2006,05,14,05,15,4.10
2006,05,14,05,16,4.10
2006,05,14,05,17,4.10
2006,05,14,05,18,4.10
2006,05,14,05,19,4.10
2006,05,14,05,20,4.10
2006,05,14,05,21,4.00
2006,05,14,05,22,4.00
2006,05,14,05,23,4.00
2006,05,14,05,24,4.00
2006,05,14,05,25,4.00
2006,05,14,05,26,4.00
2006,05,14,05,27,4.00
2006,05,14,05,28,3.90
2006,05,14,05,29,3.90
2006,05,14,05,30,3.90
2006,05,14,05,31,3.90
2006,05,14,05,32,3.80
2006,05,14,05,33,3.80
2006,05,14,05,34,3.80
2006,05,14,05,35,3.80
2006,05,14,05,36,3.80
2006,05,14,05,37,3.80
2006,05,14,05,38,3.80
2006,05,14,05,39,3.80
2006,05,14,05,40,3.80
2006,05,14,05,41,3.80
2006,05,14,05,42,3.80
2006,05,14,05,43,3.80
2006,05,14,05,44,3.90
2006,05,14,05,45,3.90
2006,05,14,05,46,3.90
2006,05,14,05,47,3.90
2006,05,14,05,48,3.90
2006,05,14,05,49,3.90
2006,05,14,05,50,4.00
2006,05,14,05,51,4.00
2006,05,14,05,52,4.00
2006,05,14,05,53,4.00
2006,05,14,05,54,4.10
2006,05,14,05,55,4.10
2006,05,14,05,56,4.10
2006,05,14,05,57,4.10
2006,05,14,05,58,4.20
2006,05,14,05,59,4.20
2006,05,14,06,00,4.20
2006,05,14,06,01,4.20
2006,05,14,06,02,4.20
2006,05,14,06,03,4.20
2006,05,14,06,04,4.20
2006,05,14,06,05,4.20
2006,05,14,06,06,4.20
2006,05,14,06,07,4.20
2006,05,14,06,08,4.20
2006,05,14,06,09,4.20
2006,05,14,06,10,4.20
2006,05,14,06,11,4.20
2006,05,14,06,12,4.20
2006,05,14,06,13,4.20
2006,05,14,06,14,4.30
2006,05,14,06,15,4.30
2006,05,14,06,16,4.40
2006,05,14,06,17,4.40
2006,05,14,06,18,4.50
2006,05,14,06,19,4.50
2006,05,14,06,20,4.60
2006,05,14,06,21,4.60
2006,05,14,06,22,4.70
2006,05,14,06,23,4.80
2006,05,14,06,24,4.80
2006,05,14,06,25,4.90
2006,05,14,06,26,4.90
2006,05,14,06,27,5.00
2006,05,14,06,28,5.10
2006,05,14,06,29,5.10
2006,05,14,06,30,5.10
2006,05,14,06,31,5.20
2006,05,14,06,32,5.30
2006,05,14,06,33,5.30
2006,05,14,06,34,5.40
2006,05,14,06,35,5.40
2006,05,14,06,36,5.50
2006,05,14,06,37,5.60
2006,05,14,06,38,5.70
2006,05,14,06,39,5.70
2006,05,14,06,40,5.80
2006,05,14,06,41,5.90
2006,05,14,06,42,6.00
2006,05,14,06,43,6.00
2006,05,14,06,44,6.10
2006,05,14,06,45,6.20
2006,05,14,06,46,6.20
2006,05,14,06,47,6.30
2006,05,14,06,48,6.30
2006,05,14,06,49,6.30
2006,05,14,06,50,6.40
2006,05,14,06,51,6.40
2006,05,14,06,52,6.40
2006,05,14,06,53,6.40
2006,05,14,06,54,6.40
2006,05,14,06,55,6.40
2006,05,14,06,56,6.50
2006,05,14,06,57,6.60
2006,05,14,06,58,6.60
2006,05,14,06,59,6.70
2006,05,14,07,00,6.70
2006,05,14,07,01,6.80
2006,05,14,07,02,6.80
2006,05,14,07,03,6.90
2006,05,14,07,04,7.10
2006,05,14,07,05,7.20
2006,05,14,07,06,7.40
2006,05,14,07,07,7.50
2006,05,14,07,08,7.60
2006,05,14,07,09,7.80
2006,05,14,07,10,7.80
2006,05,14,07,11,7.90
2006,05,14,07,12,8.00
2006,05,14,07,13,8.10
2006,05,14,07,14,8.30
2006,05,14,07,15,8.40
2006,05,14,07,16,8.50
2006,05,14,07,17,8.50
2006,05,14,07,18,8.50
2006,05,14,07,19,8.50
2006,05,14,07,20,8.50
2006,05,14,07,21,8.50
2006,05,14,07,22,8.50
2006,05,14,07,23,8.50
2006,05,14,07,24,8.50
2006,05,14,07,25,8.50
2006,05,14,07,26,8.50
2006,05,14,07,27,8.50
2006,05,14,07,28,8.50
2006,05,14,07,29,8.50
2006,05,14,07,30,8.60
2006,05,14,07,31,8.60
2006,05,14,07,32,8.60
2006,05,14,07,33,8.60
2006,05,14,07,34,8.70
2006,05,14,07,35,8.70
2006,05,14,07,36,8.70
2006,05,14,07,37,8.70
2006,05,14,07,38,8.70
2006,05,14,07,39,8.70
2006,05,14,07,40,8.80
2006,05,14,07,41,8.80
2006,05,14,07,42,8.90
2006,05,14,07,43,8.90
2006,05,14,07,44,9.00
2006,05,14,07,45,9.00
2006,05,14,07,46,9.10
2006,05,14,07,47,9.20
2006,05,14,07,48,9.20
2006,05,14,07,49,9.30
2006,05,14,07,50,9.40
2006,05,14,07,51,9.50
2006,05,14,07,52,9.60
2006,05,14,07,53,9.70
2006,05,14,07,54,9.80
2006,05,14,07,55,9.90
2006,05,14,07,56,10.00
2006,05,14,07,57,10.10
2006,05,14,07,58,10.30
2006,05,14,07,59,10.40
2006,05,14,08,00,10.50
2006,05,14,08,01,10.60
2006,05,14,08,02,10.80
2006,05,14,08,03,11.00
2006,05,14,08,04,11.10
2006,05,14,08,05,11.10
2006,05,14,08,06,11.20
2006,05,14,08,07,11.20
2006,05,14,08,08,11.30
2006,05,14,08,09,11.40
2006,05,14,08,10,11.40
2006,05,14,08,11,11.50
2006,05,14,08,12,11.60
2006,05,14,08,13,11.60
2006,05,14,08,14,11.70
2006,05,14,08,15,11.80
2006,05,14,08,16,11.80
2006,05,14,08,17,11.90
2006,05,14,08,18,12.00
2006,05,14,08,19,12.10
2006,05,14,08,20,12.20
2006,05,14,08,21,12.30
2006,05,14,08,22,12.40
2006,05,14,08,23,12.50
2006,05,14,08,24,12.50
2006,05,14,08,25,12.60
2006,05,14,08,26,12.70
2006,05,14,08,27,12.70
2006,05,14,08,28,12.80
2006,05,14,08,29,12.80
2006,05,14,08,30,12.80
2006,05,14,08,31,12.80
2006,05,14,08,32,12.80
2006,05,14,08,33,12.90
2006,05,14,08,34,12.90
2006,05,14,08,35,13.00
2006,05,14,08,36,13.00
2006,05,14,08,37,13.10
2006,05,14,08,38,13.20
2006,05,14,08,39,13.20
2006,05,14,08,40,13.30
2006,05,14,08,41,13.40
2006,05,14,08,42,13.50
2006,05,14,08,43,13.60
2006,05,14,08,44,13.60
2006,05,14,08,45,13.70
2006,05,14,08,46,13.70
2006,05,14,08,47,13.70
2006,05,14,08,48,13.70
2006,05,14,08,49,13.70
2006,05,14,08,50,13.70
2006,05,14,08,51,13.70
2006,05,14,08,52,13.70
2006,05,14,08,53,13.80
2006,05,14,08,54,13.90
2006,05,14,08,55,14.00
2006,05,14,08,56,14.10
2006,05,14,08,57,14.20
2006,05,14,08,58,14.20
2006,05,14,08,59,14.20
2006,05,14,09,00,14.20
2006,05,14,09,01,14.20
2006,05,14,09,02,14.20
2006,05,14,09,03,14.20
2006,05,14,09,04,14.20
2006,05,14,09,05,14.20
2006,05,14,09,06,14.20
2006,05,14,09,07,14.20
2006,05,14,09,08,14.20
2006,05,14,09,09,14.20
2006,05,14,09,10,14.20
2006,05,14,09,11,14.20
2006,05,14,09,12,14.20
2006,05,14,09,13,14.20
2006,05,14,09,14,14.20
2006,05,14,09,15,14.30
2006,05,14,09,16,14.30
2006,05,14,09,17,14.40
2006,05,14,09,18,14.40
2006,05,14,09,19,14.40
2006,05,14,09,20,14.40
2006,05,14,09,21,14.40
2006,05,14,09,22,14.40
2006,05,14,09,23,14.40
2006,05,14,09,24,14.40
2006,05,14,09,25,14.30
2006,05,14,09,26,14.30
2006,05,14,09,27,14.30
2006,05,14,09,28,14.40
2006,05,14,09,29,14.40
2006,05,14,09,30,14.50
2006,05,14,09,31,14.40
2006,05,14,09,32,14.40
2006,05,14,09,33,14.30
2006,05,14,09,34,14.20
2006,05,14,09,35,14.20
2006,05,14,09,36,14.20
2006,05,14,09,37,14.30
2006,05,14,09,38,14.30
2006,05,14,09,39,14.30
2006,05,14,09,40,14.40
2006,05,14,09,41,14.40
2006,05,14,09,42,14.50
2006,05,14,09,43,14.50
2006,05,14,09,44,14.50
2006,05,14,09,45,14.40
2006,05,14,09,46,14.30
2006,05,14,09,47,14.30
2006,05,14,09,48,14.30
2006,05,14,09,49,14.20
2006,05,14,09,50,14.20
2006,05,14,09,51,14.20
2006,05,14,09,52,14.10
2006,05,14,09,53,14.00
2006,05,14,09,54,13.90
2006,05,14,09,55,13.90
2006,05,14,09,56,13.90
2006,05,14,09,57,13.90
2006,05,14,09,58,13.90
2006,05,14,09,59,13.90
2006,05,14,10,00,13.90
2006,05,14,10,01,14.00
2006,05,14,10,02,14.00
2006,05,14,10,03,14.20
2006,05,14,10,04,14.20
2006,05,14,10,05,14.20
2006,05,14,10,06,14.30
2006,05,14,10,07,14.40
2006,05,14,10,08,14.40
2006,05,14,10,09,14.30
2006,05,14,10,10,14.40
2006,05,14,10,11,14.40
2006,05,14,10,12,14.40
2006,05,14,10,13,14.40
2006,05,14,10,14,14.50
2006,05,14,10,15,14.60
2006,05,14,10,16,14.60
2006,05,14,10,17,14.70
2006,05,14,10,18,14.80
2006,05,14,10,19,14.80
2006,05,14,10,20,14.90
2006,05,14,10,21,15.00
2006,05,14,10,22,15.10
2006,05,14,10,23,15.10
2006,05,14,10,24,15.20
2006,05,14,10,25,15.20
2006,05,14,10,26,15.20
2006,05,14,10,27,15.20
2006,05,14,10,28,15.20
2006,05,14,10,29,15.10
2006,05,14,10,30,15.20
2006,05,14,10,31,15.20
2006,05,14,10,32,15.20
2006,05,14,10,33,15.30
2006,05,14,10,34,15.20
2006,05,14,10,35,15.20
2006,05,14,10,36,15.20
2006,05,14,10,37,15.30
2006,05,14,10,38,15.30
2006,05,14,10,39,15.30
2006,05,14,10,40,15.40
2006,05,14,10,41,15.50
2006,05,14,10,42,15.50
2006,05,14,10,43,15.40
2006,05,14,10,44,15.50
2006,05,14,10,45,15.50
2006,05,14,10,46,15.60
2006,05,14,10,47,15.60
2006,05,14,10,48,15.70
2006,05,14,10,49,15.80
2006,05,14,10,50,15.90
2006,05,14,10,51,16.10
2006,05,14,10,52,16.10
2006,05,14,10,53,15.80
2006,05,14,10,54,15.70
2006,05,14,10,55,15.60
2006,05,14,10,56,15.60
2006,05,14,10,57,15.60
2006,05,14,10,58,15.70
2006,05,14,10,59,15.70
2006,05,14,11,00,15.80
2006,05,14,11,01,15.80
2006,05,14,11,02,15.80
2006,05,14,11,03,15.80
2006,05,14,11,04,15.80
2006,05,14,11,05,15.80
2006,05,14,11,06,15.90
2006,05,14,11,07,16.00
2006,05,14,11,08,16.10
2006,05,14,11,09,16.10
2006,05,14,11,10,16.10
2006,05,14,11,11,16.10
2006,05,14,11,12,16.10
2006,05,14,11,13,16.10
2006,05,14,11,14,16.20
2006,05,14,11,15,16.20
2006,05,14,11,16,16.30
2006,05,14,11,17,16.40
2006,05,14,11,18,16.40
2006,05,14,11,19,16.60
2006,05,14,11,20,16.70
2006,05,14,11,21,16.80
2006,05,14,11,22,16.80
2006,05,14,11,23,16.70
2006,05,14,11,24,16.60
2006,05,14,11,25,16.50
2006,05,14,11,26,16.30
2006,05,14,11,27,16.30
2006,05,14,11,28,16.40
2006,05,14,11,29,16.40
2006,05,14,11,30,16.30
2006,05,14,11,31,16.30
2006,05,14,11,32,16.30
2006,05,14,11,33,16.40
2006,05,14,11,34,16.40
2006,05,14,11,35,16.40
2006,05,14,11,36,16.40
2006,05,14,11,37,16.50
2006,05,14,11,38,16.60
2006,05,14,11,39,16.60
2006,05,14,11,40,16.40
2006,05,14,11,41,16.60
2006,05,14,11,42,16.60
2006,05,14,11,43,16.70
2006,05,14,11,44,16.70
2006,05,14,11,45,16.70
2006,05,14,11,46,16.70
2006,05,14,11,47,16.60
2006,05,14,11,48,16.60
2006,05,14,11,49,16.70
2006,05,14,11,50,16.70
2006,05,14,11,51,16.70
2006,05,14,11,52,16.70
2006,05,14,11,53,16.70
2006,05,14,11,54,16.70
2006,05,14,11,55,16.80
2006,05,14,11,56,16.70
2006,05,14,11,57,16.60
2006,05,14,11,58,16.70
2006,05,14,11,59,16.70
2006,05,14,12,00,16.70
2006,05,14,12,01,16.80
2006,05,14,12,02,16.90
2006,05,14,12,03,17.00
2006,05,14,12,04,17.00
2006,05,14,12,05,17.10
2006,05,14,12,06,17.20
2006,05,14,12,07,17.20
2006,05,14,12,08,17.10
2006,05,14,12,09,17.00
2006,05,14,12,10,17.00
2006,05,14,12,11,17.20
2006,05,14,12,12,17.30
2006,05,14,12,13,17.40
2006,05,14,12,14,17.50
2006,05,14,12,15,17.60
2006,05,14,12,16,17.60
2006,05,14,12,17,17.60
2006,05,14,12,18,17.70
2006,05,14,12,19,17.70
2006,05,14,12,20,17.80
2006,05,14,12,21,17.70
2006,05,14,12,22,17.70
2006,05,14,12,23,17.60
2006,05,14,12,24,17.40
2006,05,14,12,25,17.30
2006,05,14,12,26,17.40
2006,05,14,12,27,17.50
2006,05,14,12,28,17.60
2006,05,14,12,29,17.70
2006,05,14,12,30,17.70
2006,05,14,12,31,17.80
2006,05,14,12,32,17.90
2006,05,14,12,33,17.90
2006,05,14,12,34,17.90
2006,05,14,12,35,17.90
2006,05,14,12,36,17.90
2006,05,14,12,37,17.90
2006,05,14,12,38,17.90
2006,05,14,12,39,17.90
2006,05,14,12,40,18.00
2006,05,14,12,41,18.10
2006,05,14,12,42,18.10
2006,05,14,12,43,18.20
2006,05,14,12,44,18.20
2006,05,14,12,45,18.20
2006,05,14,12,46,18.30
2006,05,14,12,47,18.30
2006,05,14,12,48,18.40
2006,05,14,12,49,18.40
2006,05,14,12,50,18.50
2006,05,14,12,51,18.40
2006,05,14,12,52,18.40
2006,05,14,12,53,18.40
2006,05,14,12,54,18.30
2006,05,14,12,55,18.10
2006,05,14,12,56,18.00
2006,05,14,12,57,17.90
2006,05,14,12,58,17.90
2006,05,14,12,59,17.80
2006,05,14,13,00,17.80
2006,05,14,13,01,17.90
2006,05,14,13,02,17.90
2006,05,14,13,03,18.00
2006,05,14,13,04,18.10
2006,05,14,13,05,18.20
2006,05,14,13,06,18.30
2006,05,14,13,07,18.40
2006,05,14,13,08,18.40
2006,05,14,13,09,18.30
2006,05,14,13,10,18.20
2006,05,14,13,11,18.30
2006,05,14,13,12,18.20
2006,05,14,13,13,18.20
2006,05,14,13,14,18.20
2006,05,14,13,15,18.20
2006,05,14,13,16,18.20
2006,05,14,13,17,18.40
2006,05,14,13,18,18.40
2006,05,14,13,19,18.40
2006,05,14,13,20,18.40
2006,05,14,13,21,18.30
2006,05,14,13,22,18.30
2006,05,14,13,23,18.30
2006,05,14,13,24,18.20
2006,05,14,13,25,18.20
2006,05,14,13,26,18.10
2006,05,14,13,27,18.10
2006,05,14,13,28,18.10
2006,05,14,13,29,18.20
2006,05,14,13,30,18.20
2006,05,14,13,31,18.20
2006,05,14,13,32,18.20
2006,05,14,13,33,18.30
2006,05,14,13,34,18.40
2006,05,14,13,35,18.40
2006,05,14,13,36,18.40
2006,05,14,13,37,18.50
2006,05,14,13,38,18.60
2006,05,14,13,39,18.60
2006,05,14,13,40,18.50
2006,05,14,13,41,18.40
2006,05,14,13,42,18.40
2006,05,14,13,43,18.40
2006,05,14,13,44,18.40
2006,05,14,13,45,18.30
2006,05,14,13,46,18.30
2006,05,14,13,47,18.30
2006,05,14,13,48,18.20
2006,05,14,13,49,18.20
2006,05,14,13,50,18.20
2006,05,14,13,51,18.20
2006,05,14,13,52,18.20
2006,05,14,13,53,18.20
2006,05,14,13,54,18.20
2006,05,14,13,55,18.30
2006,05,14,13,56,18.30
2006,05,14,13,57,18.20
2006,05,14,13,58,18.30
2006,05,14,13,59,18.30
2006,05,14,14,00,18.40
2006,05,14,14,01,18.40
2006,05,14,14,02,18.50
2006,05,14,14,03,18.60
2006,05,14,14,04,18.60
2006,05,14,14,05,18.60
2006,05,14,14,06,18.50
2006,05,14,14,07,18.50
2006,05,14,14,08,18.40
2006,05,14,14,09,18.40
2006,05,14,14,10,18.60
2006,05,14,14,11,18.70
2006,05,14,14,12,18.70
2006,05,14,14,13,18.70
2006,05,14,14,14,18.60
2006,05,14,14,15,18.60
2006,05,14,14,16,18.60
2006,05,14,14,17,18.70
2006,05,14,14,18,18.80
2006,05,14,14,19,18.80
2006,05,14,14,20,18.70
2006,05,14,14,21,18.70
2006,05,14,14,22,18.70
2006,05,14,14,23,18.80
2006,05,14,14,24,18.80
2006,05,14,14,25,18.90
2006,05,14,14,26,18.90
2006,05,14,14,27,18.80
2006,05,14,14,28,18.80
2006,05,14,14,29,18.80
2006,05,14,14,30,18.90
2006,05,14,14,31,18.90
2006,05,14,14,32,18.80
2006,05,14,14,33,18.60
2006,05,14,14,34,18.60
2006,05,14,14,35,18.60
2006,05,14,14,36,18.60
2006,05,14,14,37,18.60
2006,05,14,14,38,18.70
2006,05,14,14,39,18.60
2006,05,14,14,40,18.60
2006,05,14,14,41,18.60
2006,05,14,14,42,18.60
2006,05,14,14,43,18.80
2006,05,14,14,44,18.90
2006,05,14,14,45,18.90
2006,05,14,14,46,19.00
2006,05,14,14,47,19.10
2006,05,14,14,48,19.10
2006,05,14,14,49,19.10
2006,05,14,14,50,19.10
2006,05,14,14,51,19.10
2006,05,14,14,52,19.20
2006,05,14,14,53,19.10
2006,05,14,14,54,19.10
2006,05,14,14,55,19.10
2006,05,14,14,56,19.10
2006,05,14,14,57,19.20
2006,05,14,14,58,19.20
2006,05,14,14,59,19.20
2006,05,14,15,00,19.10
2006,05,14,15,01,19.20
2006,05,14,15,02,19.20
2006,05,14,15,03,19.20
2006,05,14,15,04,19.20
2006,05,14,15,05,19.20
2006,05,14,15,06,19.20
2006,05,14,15,07,19.20
2006,05,14,15,08,19.10
2006,05,14,15,09,19.20
2006,05,14,15,10,19.20
2006,05,14,15,11,19.20
2006,05,14,15,12,19.20
2006,05,14,15,13,19.30
2006,05,14,15,14,19.40
2006,05,14,15,15,19.60
2006,05,14,15,16,19.70
2006,05,14,15,17,19.70
2006,05,14,15,18,19.70
2006,05,14,15,19,19.80
2006,05,14,15,20,19.80
2006,05,14,15,21,19.70
2006,05,14,15,22,19.70
2006,05,14,15,23,19.60
2006,05,14,15,24,19.60
2006,05,14,15,25,19.70
2006,05,14,15,26,19.70
2006,05,14,15,27,19.80
2006,05,14,15,28,19.70
2006,05,14,15,29,19.60
2006,05,14,15,30,19.60
2006,05,14,15,31,19.60
2006,05,14,15,32,19.60
2006,05,14,15,33,19.50
2006,05,14,15,34,19.40
2006,05,14,15,35,19.40
2006,05,14,15,36,19.40
2006,05,14,15,37,19.40
2006,05,14,15,38,19.50
2006,05,14,15,39,19.50
2006,05,14,15,40,19.60
2006,05,14,15,41,19.70
2006,05,14,15,42,19.80
2006,05,14,15,43,19.80
2006,05,14,15,44,19.80
2006,05,14,15,45,19.80
2006,05,14,15,46,19.80
2006,05,14,15,47,19.70
2006,05,14,15,48,19.80
2006,05,14,15,49,19.80
2006,05,14,15,50,19.80
2006,05,14,15,51,19.80
2006,05,14,15,52,19.90
2006,05,14,15,53,19.90
2006,05,14,15,54,19.90
2006,05,14,15,55,19.90
2006,05,14,15,56,20.00
2006,05,14,15,57,20.10
2006,05,14,15,58,20.10
2006,05,14,15,59,20.20
2006,05,14,16,00,20.10
2006,05,14,16,01,20.10
2006,05,14,16,02,20.10
2006,05,14,16,03,20.10
2006,05,14,16,04,20.20
2006,05,14,16,05,20.30
2006,05,14,16,06,20.50
2006,05,14,16,07,20.60
2006,05,14,16,08,20.70
2006,05,14,16,09,20.70
2006,05,14,16,10,20.50
2006,05,14,16,11,20.40
2006,05,14,16,12,20.30
2006,05,14,16,13,20.20
2006,05,14,16,14,20.40
2006,05,14,16,15,20.50
2006,05,14,16,16,20.60
2006,05,14,16,17,20.70
2006,05,14,16,18,20.80
2006,05,14,16,19,21.00
2006,05,14,16,20,21.10
2006,05,14,16,21,21.20
2006,05,14,16,22,21.30
2006,05,14,16,23,21.30
2006,05,14,16,24,21.20
2006,05,14,16,25,21.10
2006,05,14,16,26,21.00
2006,05,14,16,27,21.10
2006,05,14,16,28,21.30
2006,05,14,16,29,21.40
2006,05,14,16,30,21.40
2006,05,14,16,31,21.40
2006,05,14,16,32,21.40
2006,05,14,16,33,21.40
2006,05,14,16,34,21.30
2006,05,14,16,35,21.30
2006,05,14,16,36,21.30
2006,05,14,16,37,21.30
2006,05,14,16,38,21.20
2006,05,14,16,39,20.90
2006,05,14,16,40,20.40
2006,05,14,16,41,19.70
2006,05,14,16,42,19.00
2006,05,14,16,43,18.60
2006,05,14,16,44,18.30
2006,05,14,16,45,18.10
2006,05,14,16,46,17.90
2006,05,14,16,47,17.70
2006,05,14,16,48,17.60
2006,05,14,16,49,17.50
2006,05,14,16,50,17.40
2006,05,14,16,51,17.30
2006,05,14,16,52,17.30
2006,05,14,16,53,17.30
2006,05,14,16,54,17.30
2006,05,14,16,55,17.40
2006,05,14,16,56,17.50
2006,05,14,16,57,17.40
2006,05,14,16,58,17.20
2006,05,14,16,59,17.00
2006,05,14,17,00,16.80
2006,05,14,17,01,16.60
2006,05,14,17,02,16.40
2006,05,14,17,03,16.30
2006,05,14,17,04,16.20
2006,05,14,17,05,16.20
2006,05,14,17,06,16.10
2006,05,14,17,07,16.10
2006,05,14,17,08,16.00
2006,05,14,17,09,15.90
2006,05,14,17,10,15.90
2006,05,14,17,11,15.90
2006,05,14,17,12,15.90
2006,05,14,17,13,16.10
2006,05,14,17,14,16.20
2006,05,14,17,15,16.30
2006,05,14,17,16,16.30
2006,05,14,17,17,16.30
2006,05,14,17,18,16.30
2006,05,14,17,19,16.30
2006,05,14,17,20,16.30
2006,05,14,17,21,16.30
2006,05,14,17,22,16.40
2006,05,14,17,23,16.40
2006,05,14,17,24,16.50
2006,05,14,17,25,16.60
2006,05,14,17,26,16.60
2006,05,14,17,27,16.70
2006,05,14,17,28,16.70
2006,05,14,17,29,16.70
2006,05,14,17,30,16.70
2006,05,14,17,31,16.70
2006,05,14,17,32,16.80
2006,05,14,17,33,16.80
2006,05,14,17,34,16.80
2006,05,14,17,35,16.80
2006,05,14,17,36,16.80
2006,05,14,17,37,16.80
2006,05,14,17,38,16.80
2006,05,14,17,39,16.80
2006,05,14,17,40,16.90